Regional Weather Roundup
Issued by NWS

Home | Current Version | Previous Version | Text Only | Print | Product List | Glossary Off
Versions: 1 2 3 4 5 6 7 8 9 10 11 12 13 14 15 16 17 18 19 20 21 22 23 24 25 26 27 28 29 30 31 32 33 34 35 36 37 38 39 40 41 42 43 44 45 46 47 48 49 50

000
ASUS43 KFSD 010102
RWRSD

WEATHER ROUNDUP FOR SOUTH DAKOTA
NATIONAL WEATHER SERVICE SIOUX FALLS SD
800 PM CDT TUE SEP 30 2014

NOTE: "FAIR" INDICATES FEW OR NO CLOUDS BELOW 12,000 FEET WITH NO
SIGNIFICANT WEATHER AND/OR OBSTRUCTIONS TO VISIBILITY.


SDZ001>005-009-010-012>017-010200-
NORTHWEST AND NORTH CENTRAL SOUTH DAKOTA

CITY           SKY/WX    TMP DP  RH WIND       PRES   REMARKS
BUFFALO          N/A     54  51  90 W17       29.49R
FAITH            N/A     56  52  86 W22G30    29.52R
MOBRIDGE       CLOUDY    62  54  74 SW14G25   29.42R
$$

SDZ012>016-024>037-041>051-057-063-072>074-010200-
SOUTHWEST AND SOUTH CENTRAL SOUTH DAKOTA

CITY           SKY/WX    TMP DP  RH WIND       PRES   REMARKS
RAPID CTY ARPT MOCLDY    60  43  53 W10       29.64R
PIERRE         PTCLDY    63  51  65 W16G26    29.55R
CUSTER         PTCLDY    51  39  63 W12G20    29.71R
ELLSWORTH AFB  MOCLDY    58  46  62 W8        29.62R
PHILIP         MOCLDY    60  48  64 CALM      29.60R
PINE RIDGE     PTCLDY    57  49  74 CALM      29.68R
WINNER         FAIR      64  47  53 W9        29.64R
$$

SDZ004>011-016>023-039-040-010200-
NORTHEAST SOUTH DAKOTA

CITY           SKY/WX    TMP DP  RH WIND       PRES   REMARKS
ABERDEEN       CLOUDY    66  52  60 S12       29.53R
WATERTOWN      LGT RAIN  62  59  90 S20G32    29.65R
SISSETON         N/A     58  53  84 S17G24    29.65R
$$

SDZ017-020-022-023-036>040-048>070-010200-
SOUTHEAST SOUTH DAKOTA

CITY           SKY/WX    TMP DP  RH WIND       PRES   REMARKS
SIOUX FALLS    CLOUDY    66  61  84 S23G29    29.72R
HURON          MOCLDY    71  47  42 S10       29.59R
CHAMBERLAIN    PTCLDY    65  51  61 W9        29.62R
MITCHELL       PTCLDY    70  60  70 S16G24    29.64R
YANKTON        CLEAR     64  61  88 SE15      29.70R
$$

ABBREVIATIONS USED IN REMARKS
   TC - TEMPERATURE IN CELSIUS
  WCI - WIND CHILL INDEX
   HX - HEAT INDEX
  VSB - VISIBILITY



USA.gov is the U.S. government's official web portal to all federal, state and local government web resources and services.